Time,TemperatureF,DewpointF,PressureIn,WindDirection,WindDirectionDegrees,WindSpeedMPH,WindSpeedGustMPH,Humidity,HourlyPrecipIn,Conditions,Clouds,dailyrainin,SoftwareType,DateUTC
2013-02-21 00:02:00,39.7,19.1,17.72,West,270,0.0,0.0,43,0.00,,,0.00,WeatherTracker,2013-02-21 08:02:00,
2013-02-21 00:07:00,39.9,19.3,17.72,West,270,0.0,0.0,43,0.00,,,0.00,WeatherTracker,2013-02-21 08:07:00,
2013-02-21 00:12:00,40.1,18.9,17.72,West,270,0.0,0.0,42,0.00,,,0.00,WeatherTracker,2013-02-21 08:12:00,
2013-02-21 00:17:00,40.5,19.2,17.72,West,270,0.0,0.0,42,0.00,,,0.00,WeatherTracker,2013-02-21 08:17:00,
2013-02-21 00:22:00,40.5,19.2,17.72,West,270,0.0,0.0,42,0.00,,,0.00,WeatherTracker,2013-02-21 08:22:00,
2013-02-21 00:27:00,40.5,19.2,17.72,West,270,0.0,0.0,42,0.00,,,0.00,WeatherTracker,2013-02-21 08:27:00,
2013-02-21 00:32:00,40.5,19.2,17.72,West,270,0.0,0.0,42,0.00,,,0.00,WeatherTracker,2013-02-21 08:32:00,
2013-02-21 00:37:00,40.3,19.0,17.72,West,270,0.0,0.0,42,0.00,,,0.00,WeatherTracker,2013-02-21 08:37:00,
2013-02-21 00:42:00,40.1,18.9,17.72,West,270,0.0,0.0,42,0.00,,,0.00,WeatherTracker,2013-02-21 08:42:00,
2013-02-21 00:47:00,39.9,18.7,17.72,West,270,0.0,0.0,42,0.00,,,0.00,WeatherTracker,2013-02-21 08:47:00,
2013-02-21 00:52:00,40.1,18.3,17.72,West,270,0.0,0.0,41,0.00,,,0.00,WeatherTracker,2013-02-21 08:52:00,
2013-02-21 00:57:00,40.1,18.9,17.72,West,270,0.0,0.0,42,0.00,,,0.00,WeatherTracker,2013-02-21 08:57:00,
2013-02-21 01:02:00,39.9,18.7,17.72,West,270,0.0,0.0,42,0.00,,,0.00,WeatherTracker,2013-02-21 09:02:00,
2013-02-21 01:07:00,39.9,18.7,17.72,West,270,0.0,0.0,42,0.00,,,0.00,WeatherTracker,2013-02-21 09:07:00,
2013-02-21 01:12:00,39.7,18.5,17.72,West,270,0.0,0.0,42,0.00,,,0.00,WeatherTracker,2013-02-21 09:12:00,
2013-02-21 01:17:00,39.4,17.7,17.72,West,270,0.0,0.0,41,0.00,,,0.00,WeatherTracker,2013-02-21 09:17:00,
2013-02-21 01:22:00,39.4,17.7,17.72,West,270,0.0,0.0,41,0.00,,,0.00,WeatherTracker,2013-02-21 09:22:00,
2013-02-21 01:27:00,39.2,17.5,17.72,West,270,0.0,0.0,41,0.00,,,0.00,WeatherTracker,2013-02-21 09:27:00,
2013-02-21 01:32:00,39.2,17.5,17.72,West,270,0.0,0.0,41,0.00,,,0.00,WeatherTracker,2013-02-21 09:32:00,
2013-02-21 01:37:00,39.2,16.9,17.72,West,270,0.0,0.0,40,0.00,,,0.00,WeatherTracker,2013-02-21 09:37:00,
2013-02-21 01:42:00,39.2,16.9,17.72,West,270,0.0,0.0,40,0.00,,,0.00,WeatherTracker,2013-02-21 09:42:00,
2013-02-21 01:47:00,39.4,17.1,17.72,West,270,0.0,0.0,40,0.00,,,0.00,WeatherTracker,2013-02-21 09:47:00,
2013-02-21 01:52:00,39.2,16.9,17.72,West,270,0.0,0.0,40,0.00,,,0.00,WeatherTracker,2013-02-21 09:52:00,
2013-02-21 01:57:00,38.8,16.6,17.72,West,270,0.0,0.0,40,0.00,,,0.00,WeatherTracker,2013-02-21 09:57:00,
2013-02-21 02:02:00,38.5,16.3,17.72,West,270,0.0,0.0,40,0.00,,,0.00,WeatherTracker,2013-02-21 10:02:00,
2013-02-21 02:07:00,38.5,16.8,17.72,West,270,0.0,0.0,41,0.00,,,0.00,WeatherTracker,2013-02-21 10:07:00,
2013-02-21 02:12:00,38.5,16.8,17.72,West,270,0.0,0.0,41,0.00,,,0.00,WeatherTracker,2013-02-21 10:12:00,
2013-02-21 02:17:00,38.5,16.8,17.72,West,270,0.0,0.0,41,0.00,,,0.00,WeatherTracker,2013-02-21 10:17:00,
2013-02-21 02:22:00,38.5,16.3,17.72,West,270,0.0,0.0,40,0.00,,,0.00,WeatherTracker,2013-02-21 10:22:00,
2013-02-21 02:27:00,38.5,16.3,17.72,West,270,0.0,0.0,40,0.00,,,0.00,WeatherTracker,2013-02-21 10:27:00,
2013-02-21 02:32:00,38.5,16.8,17.72,West,270,0.0,0.0,41,0.00,,,0.00,WeatherTracker,2013-02-21 10:32:00,
2013-02-21 02:37:00,38.1,16.5,17.72,West,270,0.0,0.0,41,0.00,,,0.00,WeatherTracker,2013-02-21 10:37:00,
2013-02-21 02:42:00,37.9,16.4,17.72,West,270,0.0,0.0,41,0.00,,,0.00,WeatherTracker,2013-02-21 10:42:00,
2013-02-21 02:47:00,37.9,16.4,17.72,West,270,0.0,0.0,41,0.00,,,0.00,WeatherTracker,2013-02-21 10:47:00,
2013-02-21 02:52:00,37.6,16.0,17.72,West,270,0.0,0.0,41,0.00,,,0.00,WeatherTracker,2013-02-21 10:52:00,
2013-02-21 02:57:00,37.6,16.0,17.72,West,270,0.0,0.0,41,0.00,,,0.00,WeatherTracker,2013-02-21 10:57:00,
2013-02-21 03:02:00,37.6,16.0,17.72,West,270,0.0,0.0,41,0.00,,,0.00,WeatherTracker,2013-02-21 11:02:00,
2013-02-21 03:07:00,37.4,15.9,17.72,West,270,0.0,0.0,41,0.00,,,0.00,WeatherTracker,2013-02-21 11:07:00,
2013-02-21 03:12:00,37.4,15.9,17.72,West,270,0.0,0.0,41,0.00,,,0.00,WeatherTracker,2013-02-21 11:12:00,
2013-02-21 03:17:00,37.4,15.9,17.72,West,270,0.0,0.0,41,0.00,,,0.00,WeatherTracker,2013-02-21 11:17:00,
2013-02-21 03:22:00,37.4,15.9,17.72,West,270,0.0,0.0,41,0.00,,,0.00,WeatherTracker,2013-02-21 11:22:00,
2013-02-21 03:27:00,37.2,15.7,17.72,West,270,0.0,0.0,41,0.00,,,0.00,WeatherTracker,2013-02-21 11:27:00,
2013-02-21 03:32:00,37.0,16.1,17.72,West,270,0.0,0.0,42,0.00,,,0.00,WeatherTracker,2013-02-21 11:32:00,
2013-02-21 03:37:00,36.9,15.9,17.72,West,270,0.0,0.0,42,0.00,,,0.00,WeatherTracker,2013-02-21 11:37:00,
2013-02-21 03:42:00,36.9,15.9,17.72,West,270,0.0,0.0,42,0.00,,,0.00,WeatherTracker,2013-02-21 11:42:00,
2013-02-21 03:47:00,36.9,15.9,17.72,West,270,0.0,0.0,42,0.00,,,0.00,WeatherTracker,2013-02-21 11:47:00,
2013-02-21 03:52:00,36.9,15.9,17.72,West,270,0.0,0.0,42,0.00,,,0.00,WeatherTracker,2013-02-21 11:52:00,
2013-02-21 03:57:00,37.0,16.1,17.72,West,270,0.0,0.0,42,0.00,,,0.00,WeatherTracker,2013-02-21 11:57:00,
2013-02-21 04:02:00,37.0,16.1,17.72,West,270,0.0,0.0,42,0.00,,,0.00,WeatherTracker,2013-02-21 12:02:00,
2013-02-21 04:07:00,36.9,15.9,17.72,West,270,0.0,0.0,42,0.00,,,0.00,WeatherTracker,2013-02-21 12:07:00,
2013-02-21 04:12:00,36.7,16.3,17.72,West,270,0.0,0.0,43,0.00,,,0.00,WeatherTracker,2013-02-21 12:12:00,
2013-02-21 04:17:00,36.3,16.5,17.72,West,270,0.0,0.0,44,0.00,,,0.00,WeatherTracker,2013-02-21 12:17:00,
2013-02-21 04:22:00,36.3,16.5,17.72,West,270,0.0,0.0,44,0.00,,,0.00,WeatherTracker,2013-02-21 12:22:00,
2013-02-21 04:27:00,36.5,16.7,17.72,West,270,0.0,0.0,44,0.00,,,0.00,WeatherTracker,2013-02-21 12:27:00,
2013-02-21 04:32:00,36.9,17.0,17.72,West,270,0.0,0.0,44,0.00,,,0.00,WeatherTracker,2013-02-21 12:32:00,
2013-02-21 04:37:00,37.6,16.6,17.72,West,270,0.0,0.0,42,0.00,,,0.00,WeatherTracker,2013-02-21 12:37:00,
2013-02-21 04:42:00,37.6,16.0,17.72,West,270,0.0,0.0,41,0.00,,,0.00,WeatherTracker,2013-02-21 12:42:00,
2013-02-21 04:47:00,37.4,15.9,17.72,West,270,2.0,3.0,41,0.00,,,0.00,WeatherTracker,2013-02-21 12:47:00,
2013-02-21 04:52:00,37.2,16.3,17.72,West,270,0.0,0.0,42,0.00,,,0.00,WeatherTracker,2013-02-21 12:52:00,
2013-02-21 04:57:00,37.4,15.9,17.72,West,270,0.0,0.0,41,0.00,,,0.00,WeatherTracker,2013-02-21 12:57:00,
2013-02-21 05:03:00,37.6,16.0,17.72,West,270,0.0,0.0,41,0.00,,,0.00,WeatherTracker,2013-02-21 13:03:00,
2013-02-21 05:08:00,37.4,15.9,17.72,West,270,0.0,0.0,41,0.00,,,0.00,WeatherTracker,2013-02-21 13:08:00,
2013-02-21 05:13:00,37.2,15.7,17.72,West,270,0.0,0.0,41,0.00,,,0.00,WeatherTracker,2013-02-21 13:13:00,
2013-02-21 05:18:00,37.0,15.5,17.72,West,270,0.0,0.0,41,0.00,,,0.00,WeatherTracker,2013-02-21 13:18:00,
2013-02-21 05:23:00,37.0,15.5,17.72,West,270,0.0,0.0,41,0.00,,,0.00,WeatherTracker,2013-02-21 13:23:00,
2013-02-21 05:28:00,37.4,15.9,17.72,West,270,0.0,0.0,41,0.00,,,0.00,WeatherTracker,2013-02-21 13:28:00,
2013-02-21 05:33:00,37.6,15.5,17.72,West,270,0.0,0.0,40,0.00,,,0.00,WeatherTracker,2013-02-21 13:33:00,
2013-02-21 05:38:00,37.8,15.6,17.72,West,270,0.0,0.0,40,0.00,,,0.00,WeatherTracker,2013-02-21 13:38:00,
2013-02-21 05:43:00,37.9,15.8,17.72,WNW,294,2.0,2.0,40,0.00,,,0.00,WeatherTracker,2013-02-21 13:43:00,
2013-02-21 05:48:00,38.5,16.3,17.72,WNW,295,0.0,3.0,40,0.00,,,0.00,WeatherTracker,2013-02-21 13:48:00,
2013-02-21 05:53:00,38.8,16.0,17.72,WNW,301,3.0,4.0,39,0.00,,,0.00,WeatherTracker,2013-02-21 13:53:00,
2013-02-21 05:58:00,39.2,15.7,17.72,WNW,303,3.0,3.0,38,0.00,,,0.00,WeatherTracker,2013-02-21 13:58:00,
2013-02-21 06:03:00,39.4,15.3,17.72,WNW,303,3.0,3.0,37,0.00,,,0.00,WeatherTracker,2013-02-21 14:03:00,
2013-02-21 06:08:00,39.6,15.5,17.72,WNW,303,3.0,3.0,37,0.00,,,0.00,WeatherTracker,2013-02-21 14:08:00,
2013-02-21 06:13:00,39.7,15.0,17.72,WNW,303,0.0,0.0,36,0.00,,,0.00,WeatherTracker,2013-02-21 14:13:00,
2013-02-21 06:18:00,39.7,15.0,17.72,West,270,3.0,3.0,36,0.00,,,0.00,WeatherTracker,2013-02-21 14:18:00,
2013-02-21 06:23:00,39.9,14.5,17.72,NW,306,0.0,0.0,35,0.00,,,0.00,WeatherTracker,2013-02-21 14:23:00,
2013-02-21 06:28:00,40.1,14.7,17.72,NW,306,0.0,0.0,35,0.00,,,0.00,WeatherTracker,2013-02-21 14:28:00,
2013-02-21 06:33:00,40.1,14.0,17.72,NW,306,0.0,0.0,34,0.00,,,0.00,WeatherTracker,2013-02-21 14:33:00,
2013-02-21 06:38:00,40.1,14.0,17.72,NW,306,0.0,0.0,34,0.00,,,0.00,WeatherTracker,2013-02-21 14:38:00,
2013-02-21 06:43:00,40.1,14.0,17.72,NW,306,0.0,3.0,34,0.00,,,0.00,WeatherTracker,2013-02-21 14:43:00,
2013-02-21 06:48:00,40.1,14.0,17.72,WNW,299,3.0,3.0,34,0.00,,,0.00,WeatherTracker,2013-02-21 14:48:00,
2013-02-21 06:53:00,40.5,13.7,17.72,NW,306,0.0,0.0,33,0.00,,,0.00,WeatherTracker,2013-02-21 14:53:00,
2013-02-21 06:58:00,40.5,13.7,17.72,West,275,3.0,3.0,33,0.00,,,0.00,WeatherTracker,2013-02-21 14:58:00,
2013-02-21 07:03:00,40.5,13.7,17.72,WNW,291,4.0,4.0,33,0.00,,,0.00,WeatherTracker,2013-02-21 15:03:00,
2013-02-21 07:08:00,40.8,13.3,17.72,NW,308,4.0,4.0,32,0.00,,,0.00,WeatherTracker,2013-02-21 15:08:00,
2013-02-21 07:13:00,41.2,12.9,17.72,NNW,330,4.0,4.0,31,0.00,,,0.00,WeatherTracker,2013-02-21 15:13:00,
2013-02-21 07:18:00,41.5,13.2,17.72,NW,308,0.0,3.0,31,0.00,,,0.00,WeatherTracker,2013-02-21 15:18:00,
2013-02-21 07:23:00,41.7,13.3,17.72,WNW,297,5.0,5.0,31,0.00,,,0.00,WeatherTracker,2013-02-21 15:23:00,
2013-02-21 07:28:00,42.1,12.9,17.72,WNW,302,4.0,5.0,30,0.00,,,0.00,WeatherTracker,2013-02-21 15:28:00,
2013-02-21 07:33:00,42.1,12.9,17.72,NW,312,5.0,5.0,30,0.00,,,0.00,WeatherTracker,2013-02-21 15:33:00,
2013-02-21 07:38:00,42.3,13.1,17.72,NW,324,5.0,5.0,30,0.00,,,0.00,WeatherTracker,2013-02-21 15:38:00,
2013-02-21 07:43:00,42.3,13.1,17.72,NW,309,6.0,6.0,30,0.00,,,0.00,WeatherTracker,2013-02-21 15:43:00,
2013-02-21 07:48:00,42.4,13.2,17.72,NW,326,4.0,4.0,30,0.00,,,0.00,WeatherTracker,2013-02-21 15:48:00,
2013-02-21 07:53:00,42.3,13.1,17.72,NW,305,8.0,8.0,30,0.00,,,0.00,WeatherTracker,2013-02-21 15:53:00,
2013-02-21 07:58:00,42.4,13.2,17.72,NW,307,6.0,6.0,30,0.00,,,0.00,WeatherTracker,2013-02-21 15:58:00,
2013-02-21 08:03:00,42.4,13.2,17.72,NNW,337,4.0,4.0,30,0.00,,,0.00,WeatherTracker,2013-02-21 16:03:00,
2013-02-21 08:08:00,42.4,13.2,17.72,NW,305,5.0,5.0,30,0.00,,,0.00,WeatherTracker,2013-02-21 16:08:00,
2013-02-21 08:13:00,42.8,12.8,17.72,NW,316,6.0,6.0,29,0.00,,,0.00,WeatherTracker,2013-02-21 16:13:00,
2013-02-21 08:18:00,43.0,12.9,17.72,NW,325,4.0,5.0,29,0.00,,,0.00,WeatherTracker,2013-02-21 16:18:00,
2013-02-21 08:23:00,43.2,13.1,17.72,NNW,327,5.0,5.0,29,0.00,,,0.00,WeatherTracker,2013-02-21 16:23:00,
2013-02-21 08:28:00,43.2,13.1,17.72,NW,313,5.0,5.0,29,0.00,,,0.00,WeatherTracker,2013-02-21 16:28:00,
2013-02-21 08:33:00,43.2,13.1,17.72,NW,310,5.0,6.0,29,0.00,,,0.00,WeatherTracker,2013-02-21 16:33:00,
2013-02-21 08:38:00,43.2,13.1,17.72,NW,321,5.0,5.0,29,0.00,,,0.00,WeatherTracker,2013-02-21 16:38:00,
2013-02-21 08:43:00,43.3,13.2,17.72,NW,326,5.0,5.0,29,0.00,,,0.00,WeatherTracker,2013-02-21 16:43:00,
2013-02-21 08:48:00,43.3,13.2,17.72,NNW,340,4.0,4.0,29,0.00,,,0.00,WeatherTracker,2013-02-21 16:48:00,
2013-02-21 08:53:00,43.5,13.4,17.72,NW,310,0.0,4.0,29,0.00,,,0.00,WeatherTracker,2013-02-21 16:53:00,
2013-02-21 08:58:00,43.5,13.4,17.72,NW,318,0.0,5.0,29,0.00,,,0.00,WeatherTracker,2013-02-21 16:58:00,
2013-02-21 09:03:00,43.5,13.4,17.72,NW,306,4.0,4.0,29,0.00,,,0.00,WeatherTracker,2013-02-21 17:03:00,
2013-02-21 09:08:00,43.5,13.4,17.72,NNW,329,4.0,7.0,29,0.00,,,0.00,WeatherTracker,2013-02-21 17:08:00,
2013-02-21 09:13:00,43.7,13.6,17.72,NNW,337,3.0,6.0,29,0.00,,,0.00,WeatherTracker,2013-02-21 17:13:00,
2013-02-21 09:18:00,44.1,13.9,17.72,NNW,346,3.0,3.0,29,0.00,,,0.00,WeatherTracker,2013-02-21 17:18:00,
2013-02-21 09:23:00,44.4,14.2,17.72,NW,324,3.0,4.0,29,0.00,,,0.00,WeatherTracker,2013-02-21 17:23:00,
2013-02-21 09:28:00,44.2,14.8,17.72,NW,307,0.0,5.0,30,0.00,,,0.00,WeatherTracker,2013-02-21 17:28:00,
2013-02-21 09:33:00,44.2,14.0,17.72,NW,320,5.0,6.0,29,0.00,,,0.00,WeatherTracker,2013-02-21 17:33:00,
2013-02-21 09:38:00,44.6,14.3,17.72,NW,310,5.0,5.0,29,0.00,,,0.00,WeatherTracker,2013-02-21 17:38:00,
2013-02-21 09:43:00,44.8,14.5,17.72,NW,323,4.0,5.0,29,0.00,,,0.00,WeatherTracker,2013-02-21 17:43:00,
2013-02-21 09:48:00,45.0,13.8,17.72,North,357,3.0,3.0,28,0.00,,,0.00,WeatherTracker,2013-02-21 17:48:00,
2013-02-21 09:53:00,45.3,14.2,17.72,North,2,3.0,3.0,28,0.00,,,0.00,WeatherTracker,2013-02-21 17:53:00,
2013-02-21 09:58:00,45.7,14.5,17.72,NNW,333,4.0,8.0,28,0.00,,,0.00,WeatherTracker,2013-02-21 17:58:00,
2013-02-21 10:03:00,46.2,14.9,17.72,NW,311,0.0,4.0,28,0.00,,,0.00,WeatherTracker,2013-02-21 18:03:00,
2013-02-21 10:08:00,47.1,15.7,17.72,NNW,333,3.0,6.0,28,0.00,,,0.00,WeatherTracker,2013-02-21 18:08:00,
2013-02-21 10:13:00,46.9,14.7,17.72,NW,317,4.0,4.0,27,0.00,,,0.00,WeatherTracker,2013-02-21 18:13:00,
2013-02-21 10:18:00,46.9,14.7,17.72,North,0,3.0,3.0,27,0.00,,,0.00,WeatherTracker,2013-02-21 18:18:00,
2013-02-21 10:23:00,48.4,16.0,17.72,North,4,4.0,0.0,27,0.00,,,0.00,WeatherTracker,2013-02-21 18:23:00,
2013-02-21 10:28:00,48.2,15.8,17.72,North,353,2.0,3.0,27,0.00,,,0.00,WeatherTracker,2013-02-21 18:28:00,
2013-02-21 10:33:00,47.8,15.5,17.72,NNW,331,2.0,4.0,27,0.00,,,0.00,WeatherTracker,2013-02-21 18:33:00,
2013-02-21 10:38:00,47.8,15.5,17.72,North,353,3.0,3.0,27,0.00,,,0.00,WeatherTracker,2013-02-21 18:38:00,
2013-02-21 10:43:00,47.5,15.2,17.72,NNW,335,4.0,5.0,27,0.00,,,0.00,WeatherTracker,2013-02-21 18:43:00,
2013-02-21 10:48:00,47.5,15.2,17.72,NW,325,3.0,5.0,27,0.00,,,0.00,WeatherTracker,2013-02-21 18:48:00,
2013-02-21 10:53:00,48.2,14.9,17.72,NNW,344,4.0,5.0,26,0.00,,,0.00,WeatherTracker,2013-02-21 18:53:00,
2013-02-21 10:58:00,48.6,13.4,17.72,NE,37,4.0,4.0,24,0.00,,,0.00,WeatherTracker,2013-02-21 18:58:00,
2013-02-21 11:03:00,48.7,15.4,17.72,NW,316,4.0,6.0,26,0.00,,,0.00,WeatherTracker,2013-02-21 19:03:00,
2013-02-21 11:08:00,48.4,15.1,17.72,WNW,300,4.0,4.0,26,0.00,,,0.00,WeatherTracker,2013-02-21 19:08:00,
2013-02-21 11:13:00,48.4,13.3,17.72,NNE,31,3.0,3.0,24,0.00,,,0.00,WeatherTracker,2013-02-21 19:13:00,
2013-02-21 11:18:00,48.7,13.6,17.72,NW,316,0.0,6.0,24,0.00,,,0.00,WeatherTracker,2013-02-21 19:18:00,
2013-02-21 11:23:00,48.9,13.7,17.72,NNW,345,3.0,5.0,24,0.00,,,0.00,WeatherTracker,2013-02-21 19:23:00,
2013-02-21 11:28:00,49.8,14.5,17.72,WNW,282,4.0,5.0,24,0.00,,,0.00,WeatherTracker,2013-02-21 19:28:00,
2013-02-21 11:33:00,51.4,15.9,17.72,NNW,348,4.0,4.0,24,0.00,,,0.00,WeatherTracker,2013-02-21 19:33:00,
2013-02-21 11:38:00,50.7,15.3,17.72,North,6,2.0,3.0,24,0.00,,,0.00,WeatherTracker,2013-02-21 19:38:00,
2013-02-21 11:43:00,50.5,15.1,17.72,North,5,2.0,0.0,24,0.00,,,0.00,WeatherTracker,2013-02-21 19:43:00,
2013-02-21 11:48:00,52.3,13.6,17.72,NNE,23,3.0,3.0,21,0.00,,,0.00,WeatherTracker,2013-02-21 19:48:00,
2013-02-21 11:53:00,51.6,16.0,17.72,North,357,0.0,2.0,24,0.00,,,0.00,WeatherTracker,2013-02-21 19:53:00,
2013-02-21 11:58:00,50.9,15.4,17.72,North,4,0.0,0.0,24,0.00,,,0.00,WeatherTracker,2013-02-21 19:58:00,
2013-02-21 12:04:00,50.5,12.1,17.72,NE,52,0.0,3.0,21,0.00,,,0.00,WeatherTracker,2013-02-21 20:04:00,
2013-02-21 12:09:00,50.4,15.0,17.72,North,0,0.0,0.0,24,0.00,,,0.00,WeatherTracker,2013-02-21 20:09:00,
2013-02-21 12:14:00,50.7,12.2,17.72,North,353,2.0,3.0,21,0.00,,,0.00,WeatherTracker,2013-02-21 20:14:00,
2013-02-21 12:19:00,50.7,15.3,17.72,NNW,333,3.0,3.0,24,0.00,,,0.00,WeatherTracker,2013-02-21 20:19:00,
2013-02-21 12:24:00,51.6,13.0,17.72,NE,36,2.0,5.0,21,0.00,,,0.00,WeatherTracker,2013-02-21 20:24:00,
2013-02-21 12:29:00,51.3,12.7,17.72,NW,304,3.0,3.0,21,0.00,,,0.00,WeatherTracker,2013-02-21 20:29:00,
2013-02-21 12:34:00,51.3,15.7,17.72,NW,308,3.0,3.0,24,0.00,,,0.00,WeatherTracker,2013-02-21 20:34:00,
2013-02-21 12:39:00,51.4,15.9,17.72,NW,319,4.0,4.0,24,0.00,,,0.00,WeatherTracker,2013-02-21 20:39:00,
2013-02-21 12:44:00,51.8,13.1,17.72,NW,320,3.0,3.0,21,0.00,,,0.00,WeatherTracker,2013-02-21 20:44:00,
2013-02-21 12:49:00,52.3,13.6,17.72,NW,324,3.0,3.0,21,0.00,,,0.00,WeatherTracker,2013-02-21 20:49:00,
2013-02-21 12:54:00,53.8,13.7,17.72,NW,320,2.0,3.0,20,0.00,,,0.00,WeatherTracker,2013-02-21 20:54:00,
2013-02-21 12:59:00,58.3,16.2,17.72,North,10,0.0,0.0,19,0.00,,,0.00,WeatherTracker,2013-02-21 20:59:00,
2013-02-21 13:04:00,61.2,18.6,17.72,NNE,22,0.0,2.0,19,0.00,,,0.00,WeatherTracker,2013-02-21 21:04:00,
2013-02-21 13:09:00,60.1,17.7,17.72,NNE,19,0.0,0.0,19,0.00,,,0.00,WeatherTracker,2013-02-21 21:09:00,
2013-02-21 13:14:00,62.6,18.5,17.72,North,357,0.0,0.0,18,0.00,,,0.00,WeatherTracker,2013-02-21 21:14:00,
2013-02-21 13:19:00,66.9,20.7,17.72,NNW,334,0.0,3.0,17,0.00,,,0.00,WeatherTracker,2013-02-21 21:19:00,
2013-02-21 13:24:00,68.4,21.9,17.72,NW,317,0.0,0.0,17,0.00,,,0.00,WeatherTracker,2013-02-21 21:24:00,
2013-02-21 13:29:00,65.1,20.6,17.72,NNW,344,2.0,4.0,18,0.00,,,0.00,WeatherTracker,2013-02-21 21:29:00,
2013-02-21 13:34:00,59.0,14.3,17.72,ENE,64,0.0,0.0,17,0.00,,,0.00,WeatherTracker,2013-02-21 21:34:00,
2013-02-21 13:39:00,56.1,11.9,17.72,NNW,338,0.0,0.0,17,0.00,,,0.00,WeatherTracker,2013-02-21 21:39:00,
2013-02-21 13:44:00,54.7,12.0,17.72,WNW,303,3.0,3.0,18,0.00,,,0.00,WeatherTracker,2013-02-21 21:44:00,
2013-02-21 13:49:00,54.0,11.4,17.72,ENE,69,0.0,2.0,18,0.00,,,0.00,WeatherTracker,2013-02-21 21:49:00,
2013-02-21 13:54:00,54.0,11.4,17.72,ENE,60,2.0,0.0,18,0.00,,,0.00,WeatherTracker,2013-02-21 21:54:00,
2013-02-21 13:59:00,53.6,11.1,17.72,ENE,57,0.0,0.0,18,0.00,,,0.00,WeatherTracker,2013-02-21 21:59:00,
2013-02-21 14:04:00,53.6,11.1,17.72,WSW,248,0.0,0.0,18,0.00,,,0.00,WeatherTracker,2013-02-21 22:04:00,
2013-02-21 14:09:00,53.2,10.9,17.72,NW,316,4.0,0.0,18,0.00,,,0.00,WeatherTracker,2013-02-21 22:09:00,
2013-02-21 14:14:00,53.2,10.9,17.72,NW,315,4.0,4.0,18,0.00,,,0.00,WeatherTracker,2013-02-21 22:14:00,
2013-02-21 14:19:00,53.4,11.0,17.72,NW,305,0.0,0.0,18,0.00,,,0.00,WeatherTracker,2013-02-21 22:19:00,
2013-02-21 14:24:00,53.2,10.9,17.72,WSW,257,0.0,4.0,18,0.00,,,0.00,WeatherTracker,2013-02-21 22:24:00,
2013-02-21 14:29:00,53.1,10.7,17.72,NW,318,3.0,0.0,18,0.00,,,0.00,WeatherTracker,2013-02-21 22:29:00,
2013-02-21 14:34:00,53.1,10.7,17.72,NW,318,0.0,0.0,18,0.00,,,0.00,WeatherTracker,2013-02-21 22:34:00,
2013-02-21 14:39:00,52.9,10.6,17.72,NNE,31,0.0,0.0,18,0.00,,,0.00,WeatherTracker,2013-02-21 22:39:00,
2013-02-21 14:44:00,53.4,11.0,17.72,North,8,0.0,2.0,18,0.00,,,0.00,WeatherTracker,2013-02-21 22:44:00,
2013-02-21 14:49:00,53.6,11.1,17.72,North,0,0.0,0.0,18,0.00,,,0.00,WeatherTracker,2013-02-21 22:49:00,
2013-02-21 14:54:00,53.6,11.1,17.72,NNE,24,0.0,0.0,18,0.00,,,0.00,WeatherTracker,2013-02-21 22:54:00,
2013-02-21 14:59:00,53.8,11.3,17.72,NNE,23,0.0,0.0,18,0.00,,,0.00,WeatherTracker,2013-02-21 22:59:00,
2013-02-21 15:04:00,54.0,11.4,17.72,NNE,33,2.0,0.0,18,0.00,,,0.00,WeatherTracker,2013-02-21 23:04:00,
2013-02-21 15:09:00,53.8,11.3,17.72,NNE,20,0.0,0.0,18,0.00,,,0.00,WeatherTracker,2013-02-21 23:09:00,
2013-02-21 15:14:00,53.4,11.0,17.72,North,2,0.0,0.0,18,0.00,,,0.00,WeatherTracker,2013-02-21 23:14:00,
2013-02-21 15:19:00,53.1,14.2,17.72,WSW,248,0.0,0.0,21,0.00,,,0.00,WeatherTracker,2013-02-21 23:19:00,
2013-02-21 15:24:00,52.7,13.9,17.72,WNW,297,2.0,2.0,21,0.00,,,0.00,WeatherTracker,2013-02-21 23:24:00,
2013-02-21 15:29:00,52.5,13.7,17.72,WNW,297,0.0,0.0,21,0.00,,,0.00,WeatherTracker,2013-02-21 23:29:00,
2013-02-21 15:34:00,52.0,13.3,17.72,WNW,297,0.0,0.0,21,0.00,,,0.00,WeatherTracker,2013-02-21 23:34:00,
2013-02-21 15:39:00,51.6,13.0,17.72,WNW,297,0.0,0.0,21,0.00,,,0.00,WeatherTracker,2013-02-21 23:39:00,
2013-02-21 15:44:00,51.8,13.1,17.72,WNW,297,0.0,0.0,21,0.00,,,0.00,WeatherTracker,2013-02-21 23:44:00,
2013-02-21 15:49:00,51.8,13.1,17.72,WNW,297,0.0,0.0,21,0.00,,,0.00,WeatherTracker,2013-02-21 23:49:00,
2013-02-21 15:54:00,51.3,15.7,17.72,WNW,297,0.0,0.0,24,0.00,,,0.00,WeatherTracker,2013-02-21 23:54:00,
2013-02-21 15:59:00,50.7,15.3,17.72,WNW,297,2.0,4.0,24,0.00,,,0.00,WeatherTracker,2013-02-21 23:59:00,
2013-02-21 16:04:00,50.4,16.8,17.72,WNW,297,2.0,3.0,26,0.00,,,0.00,WeatherTracker,2013-02-22 00:04:00,
2013-02-21 16:09:00,50.7,17.1,17.72,WSW,252,0.0,3.0,26,0.00,,,0.00,WeatherTracker,2013-02-22 00:09:00,
2013-02-21 16:14:00,50.7,17.1,17.72,WSW,252,2.0,2.0,26,0.00,,,0.00,WeatherTracker,2013-02-22 00:14:00,
2013-02-21 16:19:00,50.7,17.1,17.72,WSW,252,0.0,0.0,26,0.00,,,0.00,WeatherTracker,2013-02-22 00:19:00,
2013-02-21 16:24:00,50.7,15.3,17.72,WSW,257,3.0,0.0,24,0.00,,,0.00,WeatherTracker,2013-02-22 00:24:00,
2013-02-21 16:29:00,51.1,15.6,17.72,WSW,257,0.0,0.0,24,0.00,,,0.00,WeatherTracker,2013-02-22 00:29:00,
2013-02-21 16:34:00,51.3,15.7,17.72,WSW,257,0.0,0.0,24,0.00,,,0.00,WeatherTracker,2013-02-22 00:34:00,
2013-02-21 16:39:00,51.3,15.7,17.72,WSW,257,0.0,0.0,24,0.00,,,0.00,WeatherTracker,2013-02-22 00:39:00,
2013-02-21 16:44:00,51.3,15.7,17.72,WSW,257,0.0,0.0,24,0.00,,,0.00,WeatherTracker,2013-02-22 00:44:00,
2013-02-21 16:49:00,50.9,17.3,17.72,WSW,257,2.0,0.0,26,0.00,,,0.00,WeatherTracker,2013-02-22 00:49:00,
2013-02-21 16:54:00,50.9,15.4,17.72,WSW,257,0.0,0.0,24,0.00,,,0.00,WeatherTracker,2013-02-22 00:54:00,
2013-02-21 16:59:00,50.9,15.4,17.72,WSW,257,0.0,3.0,24,0.00,,,0.00,WeatherTracker,2013-02-22 00:59:00,
2013-02-21 17:04:00,50.7,15.3,17.72,WSW,257,2.0,2.0,24,0.00,,,0.00,WeatherTracker,2013-02-22 01:04:00,
2013-02-21 17:09:00,50.7,17.1,17.72,WSW,257,3.0,3.0,26,0.00,,,0.00,WeatherTracker,2013-02-22 01:09:00,
2013-02-21 17:14:00,50.5,15.1,17.72,West,260,0.0,0.0,24,0.00,,,0.00,WeatherTracker,2013-02-22 01:14:00,
2013-02-21 17:19:00,50.7,17.1,17.72,West,268,3.0,3.0,26,0.00,,,0.00,WeatherTracker,2013-02-22 01:19:00,
2013-02-21 17:24:00,50.7,17.1,17.72,West,268,0.0,0.0,26,0.00,,,0.00,WeatherTracker,2013-02-22 01:24:00,
2013-02-21 17:29:00,50.7,17.1,17.72,West,268,2.0,3.0,26,0.00,,,0.00,WeatherTracker,2013-02-22 01:29:00,
2013-02-21 17:34:00,50.7,17.1,17.72,West,266,0.0,3.0,26,0.00,,,0.00,WeatherTracker,2013-02-22 01:34:00,
2013-02-21 17:39:00,50.7,17.1,17.72,West,266,3.0,3.0,26,0.00,,,0.00,WeatherTracker,2013-02-22 01:39:00,
2013-02-21 17:44:00,50.7,17.1,17.72,West,277,2.0,2.0,26,0.00,,,0.00,WeatherTracker,2013-02-22 01:44:00,
2013-02-21 17:49:00,50.7,17.1,17.72,West,274,2.0,4.0,26,0.00,,,0.00,WeatherTracker,2013-02-22 01:49:00,
2013-02-21 17:54:00,50.5,16.9,17.72,West,273,4.0,4.0,26,0.00,,,0.00,WeatherTracker,2013-02-22 01:54:00,
2013-02-21 17:59:00,50.5,16.9,17.72,West,267,3.0,3.0,26,0.00,,,0.00,WeatherTracker,2013-02-22 01:59:00,
2013-02-21 18:04:00,50.4,16.8,17.72,West,272,3.0,5.0,26,0.00,,,0.00,WeatherTracker,2013-02-22 02:04:00,
2013-02-21 18:09:00,50.4,16.8,17.72,West,266,2.0,3.0,26,0.00,,,0.00,WeatherTracker,2013-02-22 02:09:00,
2013-02-21 18:14:00,50.4,16.8,17.72,WNW,283,3.0,4.0,26,0.00,,,0.00,WeatherTracker,2013-02-22 02:14:00,
2013-02-21 18:19:00,50.4,16.8,17.72,West,281,4.0,4.0,26,0.00,,,0.00,WeatherTracker,2013-02-22 02:19:00,
2013-02-21 18:24:00,50.4,15.0,17.72,WNW,302,4.0,4.0,24,0.00,,,0.00,WeatherTracker,2013-02-22 02:24:00,
2013-02-21 18:29:00,50.5,15.1,17.72,West,265,4.0,4.0,24,0.00,,,0.00,WeatherTracker,2013-02-22 02:29:00,
2013-02-21 18:34:00,50.5,15.1,17.72,West,274,2.0,3.0,24,0.00,,,0.00,WeatherTracker,2013-02-22 02:34:00,
2013-02-21 18:39:00,50.7,15.3,17.72,West,275,4.0,4.0,24,0.00,,,0.00,WeatherTracker,2013-02-22 02:39:00,
2013-02-21 18:44:00,50.7,15.3,17.72,WNW,287,2.0,0.0,24,0.00,,,0.00,WeatherTracker,2013-02-22 02:44:00,
2013-02-21 18:49:00,50.5,15.1,17.72,West,270,3.0,3.0,24,0.00,,,0.00,WeatherTracker,2013-02-22 02:49:00,
2013-02-21 18:54:00,50.2,14.8,17.72,West,270,3.0,3.0,24,0.00,,,0.00,WeatherTracker,2013-02-22 02:54:00,
2013-02-21 18:59:00,50.2,14.8,17.72,WSW,254,0.0,4.0,24,0.00,,,0.00,WeatherTracker,2013-02-22 02:59:00,
2013-02-21 19:04:00,50.0,14.6,17.72,WSW,254,0.0,0.0,24,0.00,,,0.00,WeatherTracker,2013-02-22 03:04:00,
2013-02-21 19:09:00,50.0,14.6,17.72,WSW,254,0.0,0.0,24,0.00,,,0.00,WeatherTracker,2013-02-22 03:09:00,
2013-02-21 19:14:00,49.6,14.3,17.72,WSW,254,0.0,0.0,24,0.00,,,0.00,WeatherTracker,2013-02-22 03:14:00,
2013-02-21 19:19:00,48.7,15.4,17.72,WSW,254,0.0,0.0,26,0.00,,,0.00,WeatherTracker,2013-02-22 03:19:00,
2013-02-21 19:24:00,48.2,14.9,17.72,WSW,254,0.0,0.0,26,0.00,,,0.00,WeatherTracker,2013-02-22 03:24:00,
2013-02-21 19:29:00,47.7,15.3,17.72,WSW,254,0.0,0.0,27,0.00,,,0.00,WeatherTracker,2013-02-22 03:29:00,
2013-02-21 19:34:00,47.3,15.0,17.72,WSW,254,0.0,0.0,27,0.00,,,0.00,WeatherTracker,2013-02-22 03:34:00,
2013-02-21 19:39:00,47.3,15.0,17.72,WSW,254,0.0,0.0,27,0.00,,,0.00,WeatherTracker,2013-02-22 03:39:00,
2013-02-21 19:44:00,47.1,14.9,17.72,WSW,254,0.0,0.0,27,0.00,,,0.00,WeatherTracker,2013-02-22 03:44:00,
2013-02-21 19:49:00,46.9,14.7,17.72,WSW,254,0.0,0.0,27,0.00,,,0.00,WeatherTracker,2013-02-22 03:49:00,
2013-02-21 19:54:00,46.8,14.6,17.72,WSW,254,0.0,0.0,27,0.00,,,0.00,WeatherTracker,2013-02-22 03:54:00,
2013-02-21 19:59:00,46.8,14.6,17.72,WSW,254,0.0,0.0,27,0.00,,,0.00,WeatherTracker,2013-02-22 03:59:00,
2013-02-21 20:04:00,46.8,14.6,17.72,WSW,254,0.0,0.0,27,0.00,,,0.00,WeatherTracker,2013-02-22 04:04:00,
2013-02-21 20:09:00,46.8,14.6,17.72,WSW,254,0.0,0.0,27,0.00,,,0.00,WeatherTracker,2013-02-22 04:09:00,
2013-02-21 20:14:00,47.1,14.9,17.72,WSW,254,0.0,0.0,27,0.00,,,0.00,WeatherTracker,2013-02-22 04:14:00,
2013-02-21 20:19:00,47.3,15.9,17.72,WSW,254,0.0,0.0,28,0.00,,,0.00,WeatherTracker,2013-02-22 04:19:00,
2013-02-21 20:24:00,46.9,15.6,17.72,WSW,254,0.0,0.0,28,0.00,,,0.00,WeatherTracker,2013-02-22 04:24:00,
2013-02-21 20:29:00,46.8,15.4,17.72,WSW,254,0.0,0.0,28,0.00,,,0.00,WeatherTracker,2013-02-22 04:29:00,
2013-02-21 20:34:00,46.6,15.2,17.72,WSW,254,0.0,0.0,28,0.00,,,0.00,WeatherTracker,2013-02-22 04:34:00,
2013-02-21 20:39:00,46.6,16.0,17.72,WSW,254,0.0,0.0,29,0.00,,,0.00,WeatherTracker,2013-02-22 04:39:00,
2013-02-21 20:44:00,46.6,16.0,17.72,WSW,254,0.0,0.0,29,0.00,,,0.00,WeatherTracker,2013-02-22 04:44:00,
2013-02-21 20:49:00,46.4,15.9,17.72,WSW,254,0.0,2.0,29,0.00,,,0.00,WeatherTracker,2013-02-22 04:49:00,
2013-02-21 20:54:00,46.6,15.2,17.72,WSW,254,0.0,0.0,28,0.00,,,0.00,WeatherTracker,2013-02-22 04:54:00,
2013-02-21 20:59:00,47.1,15.7,17.72,WSW,254,0.0,0.0,28,0.00,,,0.00,WeatherTracker,2013-02-22 04:59:00,
2013-02-21 21:00:00,47.1,15.7,17.72,WSW,254,0.0,0.0,28,0.00,,,0.00,WeatherTracker,2013-02-22 05:00:00,
2013-02-21 21:05:00,47.1,15.7,17.72,WSW,254,0.0,2.0,28,0.00,,,0.00,WeatherTracker,2013-02-22 05:05:00,
2013-02-21 21:10:00,47.1,15.7,17.72,WSW,254,0.0,0.0,28,0.00,,,0.00,WeatherTracker,2013-02-22 05:10:00,
2013-02-21 21:15:00,46.9,15.6,17.72,WSW,254,2.0,0.0,28,0.00,,,0.00,WeatherTracker,2013-02-22 05:15:00,
2013-02-21 21:20:00,47.3,15.9,17.72,WSW,254,2.0,3.0,28,0.00,,,0.00,WeatherTracker,2013-02-22 05:20:00,
2013-02-21 21:25:00,47.3,15.9,17.72,WSW,254,0.0,3.0,28,0.00,,,0.00,WeatherTracker,2013-02-22 05:25:00,
2013-02-21 21:30:00,47.1,15.7,17.72,WSW,254,2.0,3.0,28,0.00,,,0.00,WeatherTracker,2013-02-22 05:30:00,
2013-02-21 21:35:00,47.1,15.7,17.72,WSW,254,2.0,3.0,28,0.00,,,0.00,WeatherTracker,2013-02-22 05:35:00,
2013-02-21 21:40:00,47.3,15.9,17.72,WSW,254,0.0,0.0,28,0.00,,,0.00,WeatherTracker,2013-02-22 05:40:00,
2013-02-21 21:45:00,47.3,15.9,17.72,WSW,254,0.0,0.0,28,0.00,,,0.00,WeatherTracker,2013-02-22 05:45:00,
2013-02-21 21:50:00,47.3,15.9,17.72,WSW,254,2.0,0.0,28,0.00,,,0.00,WeatherTracker,2013-02-22 05:50:00,
2013-02-21 21:55:00,47.3,15.9,17.72,WSW,254,0.0,0.0,28,0.00,,,0.00,WeatherTracker,2013-02-22 05:55:00,
2013-02-21 22:00:00,47.3,15.9,17.72,WSW,254,0.0,0.0,28,0.00,,,0.00,WeatherTracker,2013-02-22 06:00:00,
2013-02-21 22:05:00,47.5,15.2,17.72,WSW,254,0.0,0.0,27,0.00,,,0.00,WeatherTracker,2013-02-22 06:05:00,
2013-02-21 22:10:00,47.7,16.2,17.72,WSW,254,0.0,0.0,28,0.00,,,0.00,WeatherTracker,2013-02-22 06:10:00,
2013-02-21 22:15:00,47.5,15.2,17.72,WSW,254,0.0,0.0,27,0.00,,,0.00,WeatherTracker,2013-02-22 06:15:00,
2013-02-21 22:20:00,47.3,15.9,17.72,WSW,254,0.0,0.0,28,0.00,,,0.00,WeatherTracker,2013-02-22 06:20:00,
2013-02-21 22:25:00,47.3,15.9,17.72,WSW,254,0.0,0.0,28,0.00,,,0.00,WeatherTracker,2013-02-22 06:25:00,
2013-02-21 22:30:00,46.9,15.6,17.72,WSW,254,0.0,0.0,28,0.00,,,0.00,WeatherTracker,2013-02-22 06:30:00,
2013-02-21 22:35:00,46.8,15.4,17.72,WSW,254,0.0,0.0,28,0.00,,,0.00,WeatherTracker,2013-02-22 06:35:00,
2013-02-21 22:40:00,46.6,15.2,17.72,WSW,254,0.0,0.0,28,0.00,,,0.00,WeatherTracker,2013-02-22 06:40:00,
2013-02-21 22:45:00,46.6,15.2,17.72,WSW,254,0.0,0.0,28,0.00,,,0.00,WeatherTracker,2013-02-22 06:45:00,
2013-02-21 22:50:00,46.4,15.1,17.72,WSW,254,0.0,0.0,28,0.00,,,0.00,WeatherTracker,2013-02-22 06:50:00,
2013-02-21 22:55:00,46.4,15.1,17.72,WSW,254,0.0,0.0,28,0.00,,,0.00,WeatherTracker,2013-02-22 06:55:00,
2013-02-21 23:00:00,46.6,15.2,17.72,WSW,254,0.0,0.0,28,0.00,,,0.00,WeatherTracker,2013-02-22 07:00:00,
2013-02-21 23:05:00,46.4,15.1,17.72,WSW,254,0.0,0.0,28,0.00,,,0.00,WeatherTracker,2013-02-22 07:05:00,
2013-02-21 23:10:00,46.4,15.1,17.72,WSW,254,0.0,0.0,28,0.00,,,0.00,WeatherTracker,2013-02-22 07:10:00,
2013-02-21 23:15:00,46.4,15.1,17.72,WSW,254,0.0,0.0,28,0.00,,,0.00,WeatherTracker,2013-02-22 07:15:00,
2013-02-21 23:20:00,46.4,15.1,17.72,WSW,254,0.0,0.0,28,0.00,,,0.00,WeatherTracker,2013-02-22 07:20:00,
2013-02-21 23:25:00,46.4,15.1,17.72,WSW,254,0.0,0.0,28,0.00,,,0.00,WeatherTracker,2013-02-22 07:25:00,
2013-02-21 23:30:00,46.4,15.1,17.72,WSW,254,0.0,0.0,28,0.00,,,0.00,WeatherTracker,2013-02-22 07:30:00,
2013-02-21 23:35:00,46.6,15.2,17.72,WSW,254,0.0,0.0,28,0.00,,,0.00,WeatherTracker,2013-02-22 07:35:00,
2013-02-21 23:40:00,46.4,15.1,17.72,WSW,254,0.0,0.0,28,0.00,,,0.00,WeatherTracker,2013-02-22 07:40:00,
2013-02-21 23:45:00,46.4,15.1,17.72,WSW,254,0.0,0.0,28,0.00,,,0.00,WeatherTracker,2013-02-22 07:45:00,
2013-02-21 23:50:00,46.2,15.7,17.72,WSW,254,0.0,0.0,29,0.00,,,0.00,WeatherTracker,2013-02-22 07:50:00,
2013-02-21 23:55:00,46.0,15.6,17.72,WSW,254,0.0,0.0,29,0.00,,,0.00,WeatherTracker,2013-02-22 07:55:00,